Zurück zum Katalog

STARLINK-37767

AktivKommunikationVLEO
NORAD 69245·PAYLOAD·🇺🇸 United States

Gestartet May 29, 2026 von Cape Canaveral Space Force Station

Loading…

Nächste Überflüge (nächste 24 Stunden)

TLE

AktuellSource: CelesTrak SupGP

Epoche: Sep 14, 2026, 23:10 UTC

1 69245C 26117H   26257.96576389 -.00063943  00000+0 -18881-2 0  2579
2 69245  53.1568 179.5477 0001194  87.5499  79.8137 15.34440357    15

Verfolge STARLINK-37767 in Echtzeit mit AllMySat

Download on the App Store